This is the latest recevied weather packets stored in our database for station/object CW79215. If no packets are shown the sender has not sent any weather packets the latest 10 day(s).
| Time | Temp. | Humidity | Pressure | Rain* | Wind** | Luminosity | Snow |
|---|---|---|---|---|---|---|---|
| 1788681947 | 23.33° C | 40% | 1035.7 hPa | - | - | - | - |
| 1788681047 | 22.22° C | 39% | 1035.7 hPa | - | - | - | - |
| 1788680147 | 22.78° C | 39% | 1035.8 hPa | - | - | - | - |
| 1788679247 | 21.67° C | 41% | 1035.9 hPa | - | - | - | - |
| 1788678347 | 20.56° C | 45% | 1036 hPa | - | - | - | - |
| 1788677447 | 17.78° C | 51% | 1036.1 hPa | - | - | - | - |
| 1788676547 | 17.22° C | 53% | 1036.4 hPa | - | - | - | - |
| 1788675647 | 15° C | 60% | 1036.4 hPa | - | - | - | - |
| 1788674747 | 13.89° C | 63% | 1036.3 hPa | - | - | - | - |
| 1788673847 | 12.78° C | 66% | 1036.3 hPa | - | - | - | - |
| 1788672946 | 11.11° C | 72% | 1036.2 hPa | - | - | - | - |
| 1788672046 | 11.11° C | 73% | 1036 hPa | - | - | - | - |
| 1788671146 | 11.11° C | 73% | 1036.1 hPa | - | - | - | - |
| 1788670246 | 11.11° C | 73% | 1036.1 hPa | - | - | - | - |
| 1788669346 | 11.11° C | 73% | 1036.2 hPa | - | - | - | - |
| 1788668446 | 11.11° C | 73% | 1036.1 hPa | - | - | - | - |
| 1788667546 | 11.11° C | 75% | 1035.8 hPa | - | - | - | - |
| 1788666645 | 11.11° C | 73% | 1035.9 hPa | - | - | - | - |
| 1788665745 | 11.11° C | 74% | 1036 hPa | - | - | - | - |
| 1788664845 | 11.67° C | 71% | 1036.2 hPa | - | - | - | - |
| 1788663945 | 11.11° C | 74% | 1036.3 hPa | - | - | - | - |
| 1788663044 | 11.11° C | 75% | 1036.1 hPa | - | - | - | - |
| 1788662147 | 11.11° C | 74% | 1036.1 hPa | - | - | - | - |
| 1788661247 | 11.11° C | 73% | 1036.1 hPa | - | - | - | - |
| 1788660347 | 11.67° C | 71% | 1036.2 hPa | - | - | - | - |
* Rain since midnight (hover to see other rain measurements)
** Current wind speed in m/s (hover to see current wind gust speed)